BEIDOU-2 G3

Last updated on Wed Nov 05 2025 00:02:46 GMT+0000 (Coordinated Universal Time)

1 36590U 10024A 25308.48023334 -.00000122 00000+0 00000+0 0 9999 2 36590 3.9807 62.2261 0003251 323.7678 270.5781 1.00270377 56512
UTC large
Height (km)
Speed (km/s)
/
Latitude / Longitude
Inclination (degrees)
Orbital Period (minutes)
Azimuth
Elevation
Range (km)
Doppler Factor

Next 0 passes for location: London (51.5072 / 0.1276)

Sorry there are no passes over London.